Time,TemperatureF,DewpointF,PressureIn,WindDirection,WindDirectionDegrees,WindSpeedMPH,WindSpeedGustMPH,Humidity,HourlyPrecipIn,Conditions,Clouds,dailyrainin,SoftwareType,DateUTC
2013-08-06 00:02:00,56.0,53.0,30.11,NW,311,0.0,0.0,90,0.00,,,0.00,,2013-08-06 04:02:00,
2013-08-06 00:11:00,56.0,53.0,30.11,NW,311,0.0,0.0,90,0.00,,,0.00,,2013-08-06 04:11:00,
2013-08-06 00:33:00,56.0,53.0,30.11,NW,311,0.0,0.0,91,0.00,,,0.00,,2013-08-06 04:33:00,
2013-08-06 01:02:00,55.0,53.0,30.11,NW,311,0.0,0.0,92,0.00,,,0.00,,2013-08-06 05:02:00,
2013-08-06 01:11:00,55.0,53.0,30.11,NW,311,0.0,0.0,93,0.00,,,0.00,,2013-08-06 05:11:00,
2013-08-06 01:22:00,55.0,53.0,30.11,NW,311,0.0,0.0,93,0.00,,,0.00,,2013-08-06 05:22:00,
2013-08-06 01:32:00,54.0,52.0,30.11,NW,311,0.0,0.0,93,0.00,,,0.00,,2013-08-06 05:32:00,
2013-08-06 01:43:00,54.0,52.0,30.11,NW,311,0.0,0.0,93,0.00,,,0.00,,2013-08-06 05:43:00,
2013-08-06 01:53:00,54.0,52.0,30.11,NW,311,0.0,0.0,93,0.00,,,0.00,,2013-08-06 05:53:00,
2013-08-06 02:02:00,54.0,52.0,30.11,NW,319,0.0,0.0,94,0.00,,,0.00,,2013-08-06 06:02:00,
2013-08-06 02:12:00,54.0,52.0,30.11,NNW,330,0.0,0.0,93,0.00,,,0.00,,2013-08-06 06:12:00,
2013-08-06 02:22:00,54.0,52.0,30.11,NNW,330,0.0,0.0,93,0.00,,,0.00,,2013-08-06 06:22:00,
2013-08-06 02:32:00,54.0,52.0,30.11,NNW,330,0.0,0.0,93,0.00,,,0.00,,2013-08-06 06:32:00,
2013-08-06 02:43:00,54.0,52.0,30.11,NNW,330,0.0,0.0,93,0.00,,,0.00,,2013-08-06 06:43:00,
2013-08-06 02:52:00,53.0,51.0,30.12,NNW,330,0.0,0.0,93,0.00,,,0.00,,2013-08-06 06:52:00,
2013-08-06 03:01:00,53.0,51.0,30.12,NNW,330,0.0,0.0,93,0.00,,,0.00,,2013-08-06 07:01:00,
2013-08-06 03:22:00,53.0,51.0,30.12,NNW,330,0.0,0.0,93,0.00,,,0.00,,2013-08-06 07:22:00,
2013-08-06 03:32:00,53.0,51.0,30.12,NNW,330,0.0,0.0,93,0.00,,,0.00,,2013-08-06 07:32:00,
2013-08-06 03:43:00,53.0,51.0,30.13,NNW,330,0.0,0.0,93,0.00,,,0.00,,2013-08-06 07:43:00,
2013-08-06 03:53:00,53.0,51.0,30.13,NNW,330,0.0,0.0,93,0.00,,,0.00,,2013-08-06 07:53:00,
2013-08-06 04:02:00,53.0,51.0,30.13,NNW,330,0.0,0.0,93,0.00,,,0.00,,2013-08-06 08:02:00,
2013-08-06 04:22:00,53.0,51.0,30.13,NNW,330,0.0,0.0,94,0.00,,,0.00,,2013-08-06 08:22:00,
2013-08-06 04:33:00,52.0,50.0,30.13,NNW,330,0.0,0.0,93,0.00,,,0.00,,2013-08-06 08:33:00,
2013-08-06 04:43:00,52.0,50.0,30.13,NNW,330,0.0,0.0,94,0.00,,,0.00,,2013-08-06 08:43:00,
2013-08-06 04:52:00,52.0,50.0,30.13,NNW,330,0.0,0.0,94,0.00,,,0.00,,2013-08-06 08:52:00,
2013-08-06 05:01:00,52.0,50.0,30.13,NNW,330,0.0,0.0,94,0.00,,,0.00,,2013-08-06 09:01:00,
2013-08-06 05:11:00,51.0,49.0,30.14,NNW,330,0.0,0.0,94,0.00,,,0.00,,2013-08-06 09:11:00,
2013-08-06 05:22:00,51.0,49.0,30.14,NNW,330,0.0,0.0,94,0.00,,,0.00,,2013-08-06 09:22:00,
2013-08-06 05:32:00,51.0,49.0,30.14,NNW,330,0.0,0.0,94,0.00,,,0.00,,2013-08-06 09:32:00,
2013-08-06 05:43:00,51.0,49.0,30.14,NNW,330,0.0,0.0,94,0.00,,,0.00,,2013-08-06 09:43:00,
2013-08-06 05:52:00,51.0,49.0,30.14,NNW,330,0.0,0.0,94,0.00,,,0.00,,2013-08-06 09:52:00,
2013-08-06 06:01:00,50.0,48.0,30.14,NNW,330,0.0,0.0,94,0.00,,,0.00,,2013-08-06 10:01:00,
2013-08-06 06:12:00,50.0,48.0,30.14,NNW,330,0.0,0.0,94,0.00,,,0.00,,2013-08-06 10:12:00,
2013-08-06 06:22:00,50.0,48.0,30.15,NNW,330,0.0,0.0,94,0.00,,,0.00,,2013-08-06 10:22:00,
2013-08-06 06:32:00,50.0,48.0,30.15,NNW,330,0.0,0.0,94,0.00,,,0.00,,2013-08-06 10:32:00,
2013-08-06 06:43:00,50.0,48.0,30.15,NNW,330,0.0,0.0,94,0.00,,,0.00,,2013-08-06 10:43:00,
2013-08-06 06:53:00,51.0,50.0,30.15,NNW,333,0.0,0.0,95,0.00,,,0.00,,2013-08-06 10:53:00,
2013-08-06 07:02:00,52.0,50.0,30.16,NNW,333,0.0,0.0,94,0.00,,,0.00,,2013-08-06 11:02:00,
2013-08-06 07:22:00,54.0,51.0,30.16,NNW,345,0.0,0.0,90,0.00,,,0.00,,2013-08-06 11:22:00,
2013-08-06 07:32:00,56.0,52.0,30.16,NNE,30,0.0,0.0,85,0.00,,,0.00,,2013-08-06 11:32:00,
2013-08-06 07:43:00,57.0,52.0,30.17,NE,38,2.0,0.0,82,0.00,,,0.00,,2013-08-06 11:43:00,
2013-08-06 07:53:00,58.0,52.0,30.17,NE,55,2.0,0.0,80,0.00,,,0.00,,2013-08-06 11:53:00,
2013-08-06 08:02:00,59.0,52.0,30.18,ENE,58,4.0,0.0,78,0.00,,,0.00,,2013-08-06 12:02:00,
2013-08-06 08:22:00,61.0,53.0,30.18,ENE,58,2.0,0.0,76,0.00,,,0.00,,2013-08-06 12:22:00,
2013-08-06 08:32:00,62.0,54.0,30.18,ENE,58,0.0,5.0,74,0.00,,,0.00,,2013-08-06 12:32:00,
2013-08-06 08:43:00,62.0,54.0,30.18,ENE,58,0.0,5.0,74,0.00,,,0.00,,2013-08-06 12:43:00,
2013-08-06 08:52:00,62.0,54.0,30.18,ENE,58,0.0,5.0,74,0.00,,,0.00,,2013-08-06 12:52:00,
2013-08-06 09:02:00,66.0,56.0,30.18,ENE,76,0.0,5.0,69,0.00,,,0.00,,2013-08-06 13:02:00,
2013-08-06 09:11:00,67.0,55.0,30.18,NE,53,2.0,5.0,65,0.00,,,0.00,,2013-08-06 13:11:00,
2013-08-06 09:22:00,67.0,55.0,30.18,NE,53,2.0,5.0,65,0.00,,,0.00,,2013-08-06 13:22:00,
2013-08-06 09:32:00,70.0,54.0,30.18,East,88,0.0,7.0,56,0.00,,,0.00,,2013-08-06 13:32:00,
2013-08-06 09:42:00,70.0,54.0,30.18,East,88,0.0,7.0,56,0.00,,,0.00,,2013-08-06 13:42:00,
2013-08-06 09:53:00,71.0,53.0,30.18,NE,49,1.0,7.0,53,0.00,,,0.00,,2013-08-06 13:53:00,
2013-08-06 10:01:00,72.0,52.0,30.19,South,173,0.0,7.0,49,0.00,,,0.00,,2013-08-06 14:01:00,
2013-08-06 10:11:00,72.0,51.0,30.18,ENE,70,1.0,7.0,47,0.00,,,0.00,,2013-08-06 14:11:00,
2013-08-06 10:22:00,72.0,51.0,30.18,ENE,70,1.0,7.0,47,0.00,,,0.00,,2013-08-06 14:22:00,
2013-08-06 10:32:00,73.0,50.0,30.18,NE,56,0.0,3.0,44,0.00,,,0.00,,2013-08-06 14:32:00,
2013-08-06 10:42:00,73.0,50.0,30.18,East,79,0.0,3.0,44,0.00,,,0.00,,2013-08-06 14:42:00,
2013-08-06 11:02:00,73.0,49.0,30.18,ENE,69,2.0,3.0,42,0.00,,,0.00,,2013-08-06 15:02:00,
2013-08-06 11:12:00,74.0,49.0,30.18,SE,135,0.0,3.0,42,0.00,,,0.00,,2013-08-06 15:12:00,
2013-08-06 11:23:00,74.0,49.0,30.18,SSE,151,2.0,3.0,41,0.00,,,0.00,,2013-08-06 15:23:00,
2013-08-06 11:33:00,74.0,49.0,30.18,SSE,151,2.0,3.0,41,0.00,,,0.00,,2013-08-06 15:33:00,
2013-08-06 11:44:00,74.0,49.0,30.18,SE,124,0.0,8.0,41,0.00,,,0.00,,2013-08-06 15:44:00,
2013-08-06 11:52:00,74.0,49.0,30.18,SE,124,0.0,8.0,41,0.00,,,0.00,,2013-08-06 15:52:00,
2013-08-06 12:02:00,75.0,51.0,30.19,SE,125,0.0,8.0,43,0.00,,,0.00,,2013-08-06 16:02:00,
2013-08-06 12:11:00,75.0,51.0,30.19,SE,125,0.0,8.0,43,0.00,,,0.00,,2013-08-06 16:11:00,
2013-08-06 12:32:00,73.0,52.0,30.19,SSE,158,1.0,8.0,48,0.00,,,0.00,,2013-08-06 16:32:00,
2013-08-06 12:43:00,74.0,54.0,30.20,SSE,147,0.0,8.0,50,0.00,,,0.00,,2013-08-06 16:43:00,
2013-08-06 12:52:00,74.0,54.0,30.20,ENE,78,0.0,8.0,49,0.00,,,0.00,,2013-08-06 16:52:00,
2013-08-06 13:02:00,74.0,54.0,30.20,SE,139,0.0,8.0,49,0.00,,,0.00,,2013-08-06 17:02:00,
2013-08-06 13:11:00,74.0,54.0,30.20,SE,139,0.0,8.0,49,0.00,,,0.00,,2013-08-06 17:11:00,
2013-08-06 13:32:00,73.0,52.0,30.21,South,179,0.0,9.0,47,0.00,,,0.00,,2013-08-06 17:32:00,
2013-08-06 13:44:00,74.0,52.0,30.20,SSE,164,0.0,9.0,47,0.00,,,0.00,,2013-08-06 17:44:00,
2013-08-06 14:01:00,74.0,54.0,30.21,ESE,120,5.0,9.0,50,0.00,,,0.00,,2013-08-06 18:01:00,
2013-08-06 14:11:00,73.0,56.0,30.21,ESE,114,3.0,9.0,56,0.00,,,0.00,,2013-08-06 18:11:00,
2013-08-06 14:22:00,73.0,56.0,30.21,ESE,114,3.0,9.0,56,0.00,,,0.00,,2013-08-06 18:22:00,
2013-08-06 14:32:00,73.0,54.0,30.21,SE,136,8.0,8.0,52,0.00,,,0.00,,2013-08-06 18:32:00,
2013-08-06 14:43:00,73.0,54.0,30.21,SE,136,8.0,8.0,52,0.00,,,0.00,,2013-08-06 18:43:00,
2013-08-06 14:52:00,73.0,55.0,30.20,South,170,6.0,8.0,54,0.00,,,0.00,,2013-08-06 18:52:00,
2013-08-06 15:01:00,73.0,56.0,30.20,SSE,157,0.0,8.0,56,0.00,,,0.00,,2013-08-06 19:01:00,
2013-08-06 15:11:00,73.0,56.0,30.20,SSE,157,0.0,8.0,56,0.00,,,0.00,,2013-08-06 19:11:00,
2013-08-06 15:22:00,72.0,54.0,30.20,SSE,164,1.0,8.0,54,0.00,,,0.00,,2013-08-06 19:22:00,
2013-08-06 15:32:00,73.0,57.0,30.20,SSE,157,2.0,9.0,57,0.00,,,0.00,,2013-08-06 19:32:00,
2013-08-06 15:42:00,73.0,57.0,30.20,SSE,157,2.0,9.0,57,0.00,,,0.00,,2013-08-06 19:42:00,
2013-08-06 16:01:00,72.0,57.0,30.19,South,175,6.0,9.0,60,0.00,,,0.00,,2013-08-06 20:01:00,
2013-08-06 16:11:00,73.0,59.0,30.19,SSE,159,5.0,9.0,62,0.00,,,0.00,,2013-08-06 20:11:00,
2013-08-06 16:22:00,73.0,58.0,30.19,ESE,111,9.0,9.0,60,0.00,,,0.00,,2013-08-06 20:22:00,
2013-08-06 16:32:00,73.0,58.0,30.19,ESE,111,9.0,9.0,60,0.00,,,0.00,,2013-08-06 20:32:00,
2013-08-06 16:52:00,72.0,59.0,30.19,SE,129,4.0,4.0,63,0.00,,,0.00,,2013-08-06 20:52:00,
2013-08-06 17:32:00,72.0,59.0,30.19,South,190,5.0,7.0,64,0.00,,,0.00,,2013-08-06 21:32:00,
2013-08-06 17:43:00,72.0,62.0,30.19,SSW,212,6.0,7.0,70,0.00,,,0.00,,2013-08-06 21:43:00,
2013-08-06 17:52:00,72.0,63.0,30.19,SSE,164,3.0,7.0,73,0.00,,,0.00,,2013-08-06 21:52:00,
2013-08-06 18:01:00,71.0,63.0,30.19,South,189,6.0,7.0,75,0.00,,,0.00,,2013-08-06 22:01:00,
2013-08-06 18:11:00,71.0,64.0,30.19,SSE,157,2.0,7.0,78,0.00,,,0.00,,2013-08-06 22:11:00,
2013-08-06 18:22:00,71.0,64.0,30.19,SSE,157,2.0,7.0,78,0.00,,,0.00,,2013-08-06 22:22:00,
2013-08-06 18:32:00,71.0,64.0,30.19,SE,146,3.0,5.0,79,0.00,,,0.00,,2013-08-06 22:32:00,
2013-08-06 18:43:00,71.0,65.0,30.20,SSE,160,2.0,5.0,80,0.00,,,0.00,,2013-08-06 22:43:00,
2013-08-06 18:53:00,70.0,64.0,30.20,SSE,154,1.0,5.0,81,0.00,,,0.00,,2013-08-06 22:53:00,
2013-08-06 19:02:00,70.0,64.0,30.20,SSE,154,1.0,5.0,81,0.00,,,0.00,,2013-08-06 23:02:00,
2013-08-06 19:11:00,69.0,63.0,30.20,South,174,0.0,5.0,82,0.00,,,0.00,,2013-08-06 23:11:00,
2013-08-06 19:22:00,69.0,63.0,30.20,South,174,0.0,5.0,82,0.00,,,0.00,,2013-08-06 23:22:00,
2013-08-06 19:33:00,69.0,63.0,30.20,South,174,0.0,5.0,82,0.00,,,0.00,,2013-08-06 23:33:00,
2013-08-06 19:43:00,69.0,64.0,30.20,South,182,0.0,3.0,84,0.00,,,0.00,,2013-08-06 23:43:00,
2013-08-06 19:52:00,68.0,63.0,30.20,South,182,0.0,3.0,85,0.00,,,0.00,,2013-08-06 23:52:00,
2013-08-06 20:01:00,68.0,64.0,30.20,South,182,0.0,3.0,86,0.00,,,0.00,,2013-08-07 00:01:00,
2013-08-06 20:11:00,68.0,64.0,30.20,South,182,0.0,3.0,86,0.00,,,0.00,,2013-08-07 00:11:00,
2013-08-06 20:32:00,67.0,63.0,30.20,South,182,0.0,0.0,88,0.00,,,0.00,,2013-08-07 00:32:00,
2013-08-06 20:43:00,67.0,63.0,30.20,South,182,0.0,0.0,88,0.00,,,0.00,,2013-08-07 00:43:00,
2013-08-06 21:01:00,66.0,64.0,30.22,South,181,0.0,0.0,92,0.00,,,0.00,,2013-08-07 01:01:00,
2013-08-06 21:11:00,66.0,64.0,30.22,South,181,0.0,0.0,92,0.00,,,0.00,,2013-08-07 01:11:00,
2013-08-06 21:22:00,66.0,64.0,30.22,South,181,0.0,0.0,92,0.00,,,0.00,,2013-08-07 01:22:00,
2013-08-06 21:32:00,66.0,64.0,30.21,South,182,0.0,0.0,93,0.00,,,0.00,,2013-08-07 01:32:00,
2013-08-06 21:43:00,66.0,64.0,30.21,South,182,0.0,0.0,93,0.00,,,0.00,,2013-08-07 01:43:00,
2013-08-06 21:53:00,65.0,63.0,30.21,South,182,0.0,0.0,92,0.00,,,0.00,,2013-08-07 01:53:00,
2013-08-06 22:11:00,65.0,63.0,30.21,South,181,0.0,0.0,92,0.00,,,0.00,,2013-08-07 02:11:00,
2013-08-06 22:33:00,65.0,63.0,30.21,South,182,0.0,0.0,93,0.00,,,0.00,,2013-08-07 02:33:00,
2013-08-06 22:43:00,64.0,62.0,30.21,South,181,0.0,0.0,92,0.00,,,0.00,,2013-08-07 02:43:00,
2013-08-06 22:53:00,64.0,62.0,30.21,South,182,0.0,0.0,93,0.00,,,0.00,,2013-08-07 02:53:00,
2013-08-06 23:01:00,64.0,62.0,30.20,South,182,0.0,0.0,94,0.00,,,0.00,,2013-08-07 03:01:00,
2013-08-06 23:12:00,64.0,62.0,30.20,South,182,0.0,0.0,94,0.00,,,0.00,,2013-08-07 03:12:00,
2013-08-06 23:23:00,64.0,62.0,30.20,South,182,0.0,0.0,94,0.00,,,0.00,,2013-08-07 03:23:00,
2013-08-06 23:32:00,64.0,62.0,30.20,South,182,0.0,0.0,94,0.00,,,0.00,,2013-08-07 03:32:00,
2013-08-06 23:43:00,63.0,61.0,30.20,South,182,0.0,0.0,93,0.00,,,0.00,,2013-08-07 03:43:00,
2013-08-06 23:52:00,62.0,60.0,30.22,South,181,0.0,0.0,94,0.00,,,0.00,,2013-08-07 03:52:00,